Cloud_Cover
92 92 92 92 92 92 92 92 92 92 88 88 92 92 92 92 92 92 92 92 92 92 92 92 80 68 64 56 48 48 44 44 44 44 44 36 32 32 32 32 32 32 32 20 12 12 20 8 8 8 8 8 12 12 12 12 12 8 8 8 8 8 8 8 8 8 8 12 12 8 8 12 32 44 44 24 20 24 68 68 64 48 20 36 48 56
92 92 92 92 92 92 92 92 92 92 92 88 92 92 92 92 92 92 92 92 92 92 92 88 76 68 56 56 48 44 44 44 44 44 36 32 24 24 36 32 24 20 20 8 0 0 0 0 0 8 20 20 20 20 20 20 12 12 12 12 12 12 12 8 8 12 12 8 0 0 0 8 20 32 44 24 20 32 48 64 56 44 36 56 56 44
92 92 92 92 92 92 92 92 92 92 92 92 92 92 92 92 92 92 92 92 92 92 92 88 80 68 56 48 44 44 44 44 44 44 36 36 32 32 32 32 24 20 12 20 12 12 8 12 20 20 32 32 24 24 20 20 20 20 20 20 20 20 12 12 8 8 8 0 0 0 0 12 24 32 32 32 32 32 20 36 32 24 44 56 56 48
92 92 92 88 92 92 92 92 92 92 92 92 92 92 92 92 92 92 92 92 92 92 88 80 76 68 64 48 44 44 44 48 48 44 44 44 44 36 32 36 36 32 24 36 36 32 24 36 36 36 36 36 32 32 32 24 24 24 32 24 24 20 12 12 8 8 0 0 0 0 0 12 24 24 24 24 24 32 32 20 24 32 24 44 64 68
92 92 88 88 88 92 92 92 92 92 92 92 92 92 92 92 92 92 92 92 92 92 88 80 76 76 76 68 64 64 64 76 76 68 56 68 68 56 48 56 56 56 48 56 48 44 44 48 48 44 44 36 36 36 36 36 32 32 32 32 24 20 8 8 8 8 8 0 0 0 0 8 12 20 20 20 20 20 24 32 32 32 24 36 48 56
88 88 76 80 80 88 92 92 92 92 92 92 92 92 92 92 92 92 92 92 92 92 92 88 80 80 88 88 88 88 88 92 92 88 80 88 80 76 76 68 64 64 64 64 56 56 56 56 48 48 48 48 44 44 36 32 32 24 12 12 12 8 0 0 8 12 12 0 0 0 8 8 8 12 12 12 8 8 12 20 24 24 24 24 24 24
68 68 64 68 76 76 88 92 92 92 92 92 92 92 92 92 92 92 92 92 92 92 92 92 92 92 92 92 92 92 92 92 88 88 88 76 68 68 68 56 56 64 64 64 64 64 64 56 48 48 48 44 36 32 20 20 12 12 0 0 0 0 0 8 8 12 12 0 0 8 8 12 8 8 8 8 8 0 0 8 12 12 12 12 20 24
56 56 56 64 68 68 80 88 88 92 92 92 92 88 92 92 92 92 92 92 92 92 92 92 92 88 88 88 88 88 92 80 80 76 76 48 44 44 44 44 44 48 56 48 48 48 48 44 44 44 44 32 24 20 8 8 8 0 0 0 0 0 0 8 12 12 12 8 8 8 8 8 8 8 8 0 0 0 8 8 0 0 0 8 12 20
56 48 64 68 76 76 80 76 80 88 92 92 88 88 88 88 92 92 92 92 92 92 92 92 88 80 68 76 76 76 76 64 56 48 44 36 32 32 36 32 32 36 44 36 36 36 36 32 32 32 24 20 12 8 0 0 0 0 0 0 0 0 8 8 12 12 12 8 8 0 0 8 8 8 12 8 8 8 8 0 8 8 0 0 8 12
76 64 76 68 68 68 76 64 64 76 88 92 88 88 88 88 92 92 92 92 92 92 92 92 88 80 68 64 64 56 56 44 36 32 24 32 32 32 24 24 24 24 24 24 32 32 32 20 20 12 12 8 8 8 8 8 8 8 8 8 8 8 8 8 8 8 8 0 0 0 8 8 8 8 12 8 8 8 0 0 8 8 8 0 8 8
92 88 88 80 68 64 68 56 56 64 80 88 92 92 92 92 92 92 88 92 92 92 88 88 88 88 80 68 64 56 56 44 36 36 32 24 24 20 20 24 24 24 24 24 24 24 24 12 12 8 8 12 12 12 20 20 12 12 8 8 8 8 12 12 8 8 0 0 0 0 0 0 0 0 8 0 0 0 0 0 0 0 8 8 8 8
92 92 92 92 80 68 68 64 68 80 88 92 92 92 92 88 88 80 80 80 80 76 68 80 88 88 80 76 68 64 56 56 48 44 32 36 36 32 32 32 32 32 24 24 24 20 20 24 24 20 20 32 32 32 32 24 20 12 8 12 12 12 12 8 8 0 0 0 0 0 0 0 0 0 0 0 0 0 0 0 0 8 8 8 12 12
92 92 92 92 92 88 76 68 68 76 80 76 76 68 68 68 68 76 76 68 64 64 48 48 48 44 44 56 64 68 80 68 56 56 48 48 48 48 44 44 44 44 44 44 44 36 32 36 36 36 44 36 36 32 32 20 12 12 0 8 8 8 8 0 0 0 0 0 0 0 0 0 0 0 0 0 0 0 0 0 0 8 12 8 12 12
92 88 92 92 92 92 80 76 68 64 68 56 48 48 48 48 64 68 68 64 64 56 56 48 44 36 44 36 44 48 56 48 44 44 44 44 48 56 56 48 48 48 56 44 36 36 44 44 36 36 36 32 24 24 24 12 8 8 0 0 0 0 0 0 0 0 0 0 0 0 0 0 0 0 0 0 0 0 0 0 0 0 8 8 12 12
88 80 88 92 92 88 68 68 64 56 64 56 48 44 44 56 68 76 76 76 68 64 68 56 48 48 64 48 44 44 44 44 36 24 12 20 24 32 36 24 24 32 44 36 32 32 36 24 20 20 20 8 8 8 12 8 8 8 0 0 0 0 0 0 0 0 0 0 0 0 0 0 0 0 0 0 0 0 0 0 0 0 0 8 20 24
88 88 88 68 68 64 64 56 64 68 64 56 56 56 64 76 68 64 68 68 64 64 76 76 68 68 76 64 56 56 48 48 44 36 24 32 24 24 24 20 12 12 20 20 12 12 20 12 12 8 8 8 8 8 12 8 8 0 0 0 0 0 0 0 0 0 0 0 0 0 0 0 0 0 0 0 0 0 0 0 0 0 8 8 12 24
88 92 88 76 68 64 56 64 68 68 64 80 80 68 68 64 56 48 56 56 64 64 68 76 76 76 68 64 64 64 56 44 44 44 44 36 32 24 24 36 32 20 12 20 20 20 12 24 24 24 20 20 20 12 12 0 0 0 0 0 0 0 0 0 0 0 0 0 0 0 0 0 0 0 0 0 0 0 0 0 0 0 0 8 8 12
76 80 80 80 80 68 68 76 76 68 68 80 80 68 64 56 56 56 64 68 68 76 68 76 76 76 68 64 56 56 56 48 36 32 36 44 44 36 36 36 32 24 20 20 20 20 20 32 32 32 24 12 8 8 0 0 0 0 0 0 0 0 0 0 0 0 8 0 0 0 0 0 0 0 0 0 0 0 0 0 0 0 0 0 8 8
76 68 76 76 76 68 68 76 68 68 80 76 68 68 68 56 64 68 76 68 76 76 80 76 76 68 76 64 48 36 36 44 36 36 36 48 44 36 32 32 32 24 20 20 20 20 20 24 24 20 12 8 0 0 0 0 0 0 0 0 0 0 8 8 8 8 8 8 8 8 0 0 0 0 0 0 0 0 0 0 0 0 0 0 0 0
68 68 56 56 56 56 48 56 56 64 76 68 76 76 64 56 64 76 76 76 76 76 68 76 76 76 76 76 48 32 44 56 56 48 56 56 48 36 32 32 32 24 20 24 24 20 20 20 20 20 12 12 8 8 0 8 8 8 8 12 12 8 12 12 12 8 0 0 0 0 0 0 0 0 0 0 0 0 0 0 0 0 8 8 8 0
80 68 64 68 64 48 44 44 44 56 64 76 76 76 64 56 64 68 64 76 80 80 80 80 80 76 68 64 48 36 32 48 64 64 64 56 48 36 36 36 32 24 24 32 32 32 24 24 24 24 20 20 20 12 12 20 20 20 20 20 12 12 8 8 8 8 0 0 0 0 0 0 0 0 0 0 0 0 0 0 0 0 8 8 8 8
88 80 68 64 56 48 44 48 48 56 64 64 56 56 64 68 68 64 44 68 80 80 80 80 80 76 68 56 44 36 36 64 68 64 64 64 56 48 44 44 44 36 36 44 44 36 32 32 32 24 24 24 24 20 20 20 20 20 20 12 12 8 8 8 0 0 0 0 0 0 0 0 0 0 0 0 0 0 0 0 0 0 0 0 0 8
76 80 92 68 56 56 56 56 64 64 56 56 48 48 56 64 64 56 44 64 68 76 68 76 80 76 68 64 48 48 64 68 64 56 56 64 56 48 44 48 48 44 44 48 48 44 36 36 32 32 24 20 20 20 20 20 12 12 12 12 12 8 8 8 0 0 0 0 0 0 0 0 0 0 0 0 0 0 0 0 0 0 0 0 0 0
68 76 76 68 68 68 76 68 64 64 56 56 48 44 44 56 56 56 56 68 76 76 80 88 92 88 76 76 68 64 64 68 76 68 64 68 64 48 44 56 56 56 56 44 36 32 20 20 24 24 20 12 8 8 12 12 12 12 20 12 12 12 12 8 8 8 8 0 0 0 0 0 0 0 0 0 0 0 0 0 0 0 0 0 0 0
68 76 80 80 76 76 68 68 64 64 64 48 48 48 48 48 64 76 80 76 80 88 92 92 92 88 68 68 68 64 64 68 76 76 68 76 68 64 56 56 64 64 56 44 44 44 24 24 20 20 12 12 12 12 12 12 12 20 20 12 12 12 8 8 8 8 8 0 0 0 0 0 0 0 0 0 0 0 0 0 0 0 0 0 0 0
88 88 80 76 68 68 68 68 68 64 48 44 44 48 56 64 76 80 80 88 92 92 92 92 88 80 68 68 64 64 64 68 76 76 76 80 76 68 64 48 48 44 36 44 48 48 44 32 24 20 20 12 12 12 12 12 12 12 12 20 12 12 12 12 12 8 8 8 0 0 0 0 0 0 0 0 0 0 0 0 0 0 0 0 0 0
92 88 88 76 76 68 68 68 64 56 48 56 56 56 64 76 88 92 92 92 92 92 88 80 80 80 76 76 68 64 56 64 68 68 68 76 76 68 64 56 48 44 36 44 48 48 48 32 24 20 20 12 12 12 12 12 12 12 12 20 20 20 12 12 12 8 8 0 0 8 0 0 0 0 0 0 0 0 8 0 0 0 0 0 0 0
92 92 88 88 80 80 76 68 68 68 64 80 88 80 80 88 92 92 92 92 92 88 76 80 88 88 76 68 64 56 64 64 64 64 64 68 68 68 64 64 48 36 36 48 48 48 48 44 32 24 20 12 12 12 12 12 12 12 12 20 20 20 20 12 12 8 8 8 8 0 0 0 0 0 0 0 0 0 0 0 0 0 0 0 0 0
92 92 92 92 92 92 88 80 80 88 92 92 88 88 88 88 92 92 92 92 92 80 76 88 92 88 68 64 56 56 68 64 64 64 64 68 64 56 56 56 48 44 36 48 48 48 56 48 44 32 24 20 20 12 12 12 12 12 20 20 20 20 12 12 12 12 8 8 8 8 0 0 0 0 0 0 0 0 0 0 0 0 0 0 0 0
92 92 92 92 92 92 92 92 92 92 92 88 88 92 92 92 92 92 92 92 92 92 88 92 92 92 76 68 68 68 76 68 68 64 64 64 64 56 56 64 64 48 44 56 56 56 56 56 48 36 20 20 20 20 20 12 12 20 20 20 20 12 12 12 12 12 8 8 8 8 0 0 0 0 0 0 0 0 0 0 0 0 0 0 0 0
88 92 88 88 92 92 92 92 92 92 92 92 92 92 92 92 92 92 92 92 92 92 92 92 92 88 80 80 76 76 76 76 68 64 56 64 64 64 64 76 68 56 48 68 76 68 48 48 48 36 32 24 20 20 20 20 20 20 20 24 24 20 12 12 12 12 8 8 8 8 0 0 0 0 0 0 0 0 0 0 0 0 0 0 0 0
92 92 88 88 88 92 92 92 92 92 92 92 92 92 92 92 92 92 92 92 92 92 92 92 92 88 80 80 80 80 76 68 64 56 56 64 64 68 76 76 68 56 56 76 80 76 56 48 44 44 44 36 32 24 20 24 20 20 20 24 24 20 12 20 20 12 8 12 12 8 8 0 0 0 0 0 0 0 0 0 0 0 0 0 0 0
92 92 92 92 92 92 92 92 92 92 92 92 92 92 92 92 92 92 92 92 92 92 92 92 92 92 88 80 80 80 76 68 64 64 56 68 68 68 76 80 76 68 64 76 76 76 68 48 44 36 36 36 32 32 24 20 20 20 24 24 20 20 12 20 24 24 20 20 12 12 8 8 8 0 0 0 0 0 0 0 0 0 0 0 0 0
92 92 92 92 92 92 92 92 92 92 92 92 92 92 92 92 92 92 92 92 92 92 92 92 92 92 92 88 88 80 76 76 68 64 64 68 76 76 76 88 80 76 76 76 76 76 80 56 48 44 44 32 32 32 32 24 20 20 20 20 20 20 20 24 32 32 24 20 20 12 12 8 8 0 0 0 0 0 0 0 0 0 0 0 0 0
92 92 92 92 92 92 92 92 92 92 92 92 92 92 92 92 92 92 92 92 92 92 92 92 92 92 92 92 88 80 76 68 64 64 64 68 76 80 88 80 80 76 80 68 68 80 88 56 48 44 44 32 24 24 32 32 24 24 20 20 20 24 24 32 32 32 24 20 20 20 12 12 8 0 0 0 0 0 0 0 0 0 0 0 0 0
88 88 92 92 92 92 92 92 92 92 92 92 92 92 92 92 92 92 92 92 92 92 92 92 92 92 92 92 92 88 68 64 64 68 68 76 80 88 88 76 76 88 88 64 68 88 88 56 44 36 44 36 36 32 32 24 24 24 24 20 20 24 32 32 32 32 32 24 20 12 12 12 8 8 0 0 0 0 0 0 0 0 0 0 0 0
88 88 92 92 92 92 92 92 92 92 92 92 92 92 92 92 92 92 92 92 92 92 92 92 92 92 92 92 92 88 76 68 68 76 80 80 88 88 92 80 80 88 88 76 68 68 88 76 56 36 36 36 36 32 32 24 24 24 24 20 24 32 32 32 32 32 32 24 20 12 12 12 12 8 0 0 0 0 0 0 0 0 0 0 0 0
88 88 92 92 92 88 92 92 92 92 88 92 92 92 92 92 92 92 92 92 92 92 92 92 92 92 92 88 88 88 80 80 80 80 88 88 88 88 92 88 88 92 92 88 76 68 88 88 68 44 32 32 32 32 24 24 24 24 24 24 32 36 32 32 24 24 24 24 20 20 20 12 12 12 0 0 0 0 0 0 0 0 0 0 0 0
92 92 92 92 92 92 92 92 88 88 92 92 92 92 92 88 88 88 92 92 92 92 92 92 92 92 92 88 88 80 88 88 88 88 88 88 88 88 92 92 92 92 92 92 80 80 80 76 64 48 48 36 36 32 32 24 32 32 24 24 24 32 32 32 24 24 20 20 20 20 20 12 8 8 0 0 0 0 0 0 0 0 0 0 0 0
92 92 92 92 92 92 92 92 92 92 92 92 88 88 88 88 88 80 88 92 92 92 92 92 92 92 92 92 92 92 92 92 92 92 92 88 88 88 92 92 92 92 92 92 88 88 88 76 64 48 44 44 44 36 32 32 32 36 32 32 24 24 24 32 24 12 12 20 12 12 8 0 0 0 0 0 0 0 0 0 0 0 0 0 0 0
92 92 92 92 92 92 92 92 92 92 92 88 88 88 88 92 88 88 92 92 92 92 92 92 92 92 92 92 92 92 88 88 88 88 88 88 88 88 92 92 92 92 92 92 88 88 88 76 64 44 44 44 44 36 36 36 36 36 36 36 24 20 20 20 20 20 20 20 20 8 8 0 0 0 0 0 0 0 0 0 0 0 0 0 0 0
92 92 92 92 92 92 92 92 92 92 92 92 92 92 92 92 92 92 92 92 92 92 92 92 92 92 92 92 92 92 88 88 88 88 88 88 88 92 92 92 92 92 92 88 88 88 88 76 56 44 44 44 48 56 48 36 36 36 44 44 32 20 12 12 12 12 24 24 12 0 8 0 0 0 0 0 0 0 0 0 0 0 0 0 0 0
92 88 92 88 88 92 92 92 92 92 92 92 92 92 92 92 92 92 92 92 92 92 92 92 92 92 88 88 88 92 92 88 88 80 80 80 88 88 88 92 92 92 88 88 88 80 64 76 68 48 44 44 56 64 48 36 36 44 44 36 24 20 24 12 20 24 24 12 8 0 0 0 0 0 0 0 0 0 0 0 0 0 0 0 0 0
92 92 92 92 92 92 88 88 92 92 92 92 92 92 88 88 88 88 88 92 88 88 88 88 88 88 88 88 88 88 88 76 68 76 80 80 88 88 92 92 88 88 88 88 76 64 56 56 56 48 48 48 56 48 44 44 36 36 32 24 32 36 36 32 20 8 12 8 8 0 0 0 0 0 0 0 0 0 0 0 0 0 0 0 0 0
92 92 92 92 92 92 88 88 88 88 88 88 88 92 92 88 88 88 88 88 88 88 88 88 88 88 88 88 88 88 80 68 64 68 68 80 88 88 92 88 88 88 88 88 76 64 64 64 56 56 56 64 64 56 44 36 36 32 36 32 24 20 20 8 8 12 12 8 0 0 0 0 0 0 0 0 0 0 0 0 0 0 0 0 0 0
92 92 92 92 92 92 92 88 80 80 80 80 88 92 88 80 80 80 88 88 88 88 88 88 88 88 88 88 88 80 76 64 64 64 68 80 88 88 92 92 88 88 88 88 76 56 64 76 68 64 64 64 64 48 48 44 36 32 24 20 20 20 12 8 12 12 12 8 0 0 0 0 0 0 0 0 0 0 0 0 0 0 0 0 0 0
92 92 92 92 92 92 92 92 88 80 76 80 80 80 80 80 80 80 80 80 80 80 88 88 88 88 88 80 80 80 68 68 64 64 80 88 88 92 92 88 88 88 88 80 76 68 76 76 68 68 68 68 56 44 36 36 32 20 12 8 12 12 20 12 12 8 8 8 0 0 0 0 0 0 0 0 0 0 0 0 0 0 0 0 0 0
92 92 92 92 88 88 88 88 88 80 68 76 80 80 80 80 80 80 80 80 80 80 80 80 80 80 80 88 88 80 68 64 68 76 88 88 88 88 88 88 88 88 80 76 76 76 68 68 64 64 64 64 48 36 32 32 32 24 12 8 8 12 12 8 8 0 8 0 0 0 0 0 0 0 0 0 0 0 0 0 0 0 0 0 0 0
88 88 92 80 80 80 80 80 80 80 80 76 80 80 76 76 76 76 80 88 88 80 80 80 80 80 80 88 80 80 88 68 68 80 88 88 88 88 88 88 88 88 88 68 68 68 64 56 56 56 56 56 48 36 24 24 24 24 12 12 8 12 8 8 0 0 0 0 0 0 0 0 0 0 0 0 0 0 0 0 0 0 0 0 0 0
88 80 88 80 80 80 76 76 76 76 76 76 76 80 76 76 76 80 80 88 80 76 80 80 80 80 80 80 80 88 80 80 80 80 80 80 88 88 88 88 88 88 80 68 68 68 64 56 44 36 36 48 44 36 32 24 24 24 32 20 12 12 12 8 0 0 0 0 0 0 0 0 0 0 0 0 0 0 0 0 0 0 0 0 0 0
88 88 80 88 88 80 76 76 76 76 68 80 80 76 80 76 80 88 88 80 76 76 76 76 76 76 76 80 88 80 80 80 80 80 80 80 80 88 88 80 80 80 80 76 76 76 76 56 44 32 24 32 36 44 44 24 24 24 32 20 12 12 12 8 0 0 8 8 0 0 0 0 0 0 0 0 0 0 0 0 0 0 0 0 0 0